• MPC Preparation (Info)

  • MPEC 2014-P10 : 2014 OD338

    The following Minor Planet Electronic Circular may be linked-to from your own Web pages, but must not otherwise be redistributed electronically.

    A form allowing access to any MPEC is at the bottom of this page.


    Read MPEC 2014-P09 Read MPEC 2014-P11


    M.P.E.C. 2014-P10                                Issued 2014 Aug. 3, 01:57 UT
    
         The Minor Planet Electronic Circulars contain information on unusual
             minor planets and routine data on comets.  They are published
       on behalf of Commission 20 of the International Astronomical Union by the
              Minor Planet Center, Smithsonian Astrophysical Observatory,
                              Cambridge, MA 02138, U.S.A.
    
                 Prepared using the Tamkin Foundation Computer Network
    
                                  MPC@CFA.HARVARD.EDU
                URL https://www.minorplanetcenter.net/    ISSN 1523-6714
    
                                      2014 OD338
    
    Observations:
         K14OX8D* C2014 07 27.55934 00 27 33.098+01 56 54.68         21.2 wLEP010F51
         K14OX8D  C2014 07 27.57017 00 27 32.686+01 57 11.56         21.3 wLEP010F51
         K14OX8D  C2014 07 27.58096 00 27 32.279+01 57 28.57         21.5 wLEP010F51
         K14OX8D  C2014 07 27.59172 00 27 31.848+01 57 45.39         21.4 wLEP010F51
         K14OX8D =C2014 07 29.54174 00 26 36.90 +02 46 56.6          20.3  tEP010568
         K14OX8D =C2014 07 29.54299 00 26 36.84 +02 46 58.5          20.4  tEP010568
         K14OX8D =C2014 07 29.54425 00 26 36.78 +02 47 00.3          20.5  tEP010568
         K14OX8D  C2014 07 29.54552 00 26 36.733+02 47 01.72         21.5 wLEP010F51
         K14OX8D  C2014 07 29.55786 00 26 36.189+02 47 19.95         21.4 wLEP010F51
         K14OX8D  C2014 07 29.57020 00 26 35.622+02 47 38.05         21.4 wLEP010F51
         K14OX8D  C2014 07 30.56577 00 26 01.941+03 11 22.81         21.2 wLEP010F51
         K14OX8D  C2014 07 30.57824 00 26 01.318+03 11 40.45         21.2 wLEP010F51
         K14OX8D  C2014 07 30.59072 00 26 00.703+03 11 57.94         21.4 wLEP010F51
         K14OX8D  C2014 07 30.60325 00 26 00.078+03 12 15.52         21.4 wLEP010F51
         K14OX8D  C2014 08 01.98944 00 24 26.02 +04 05 16.0          21.1 VMEP010033
         K14OX8D  C2014 08 01.99626 00 24 25.69 +04 05 24.6          21.1 VMEP010033
    
    Observer details:
    033 Karl Schwarzschild Observatory, Tautenburg.  Observer B. Stecklum.  1.34-m
        f/4 Schmidt + CCD.
    568 Mauna Kea.  Observers R. J. Wainscoat, L. Wells.  Measurers P. Veres,
        R. J. Wainscoat.  3.6-m Canada-France-Hawaii Telescope + CCD.
    F51 Pan-STARRS 1, Haleakala.  Observers N. Primak, A. Schultz, T. Goggia,
        M. Willman.  1.8-m Ritchey-Chretien + CCD.
    
    Orbital elements:
    2014 OD338                                               Earth MOID = 0.0734 AU
    Epoch 2014 May 23.0 TT = JDT 2456800.5                  MPC
    M 351.28364              (2000.0)            P               Q
    n   0.32117566     Peri.  317.83242     +0.09275713     +0.99336381
    a   2.1117425      Node   317.35765     -0.88462603     +0.05087221
    e   0.4977846      Incl.    5.76139     -0.45698238     +0.10315210
    P   3.07           H   21.7           G   0.15           U   7
    Residuals in seconds of arc
    140727 F51  0.0   0.1+    140729 568  0.1+  0.2-    140730 F51  0.0   0.0
    140727 F51  0.0   0.1-    140729 F51  0.1-  0.1-    140730 F51  0.1-  0.0
    140727 F51  0.1+  0.0     140729 F51  0.0   0.1+    140801 033  0.1-  0.1+
    140727 F51  0.1-  0.0     140729 F51  0.1-  0.2+    140801 033  0.1+  0.1-
    140729 568  0.2+  0.2-    140730 F51  0.2+  0.1-
    140729 568  0.1+  0.1-    140730 F51  0.0   0.0
    
    Ephemeris:
    2014 OD338               a,e,i = 2.11, 0.50, 6                   q = 1.0605
    Date    TT    R. A. (2000) Decl.     Delta      r     Elong.  Phase     V
    2014 07 04    00 19 11.7 -13 20 17   0.1932  1.0748   102.4    67.5    20.7
    ...
    2014 07 19    00 28 46.8 -02 22 31   0.2285  1.1164   110.3    58.6    20.8
    ...
    2014 07 27    00 27 45.8 +01 42 18   0.2474  1.1481   116.7    52.2    20.9
    ...
    2014 08 02    00 24 24.5 +04 05 53   0.2619  1.1756   122.2    46.9    20.9
    2014 08 03    00 23 38.9 +04 26 43   0.2643  1.1804   123.2    46.0    20.9
    2014 08 04    00 22 49.9 +04 46 42   0.2668  1.1853   124.2    45.1    20.9
    ...
    2014 08 10    00 16 51.5 +06 29 07   0.2824  1.2163   130.5    39.3    20.9
    ...
    2014 08 18    00 06 26.5 +08 01 23   0.3058  1.2610   139.6    31.3    21.0
    ...
    2014 09 02    23 42 58.1 +08 54 57   0.3641  1.3526   157.4    16.6    21.1
    
    A. U. Tomatic                (C) Copyright 2014 MPC           M.P.E.C. 2014-P10
    

    Read MPEC 2014-P09 Read MPEC 2014-P11


    MPEC number:

    Enter an MPEC number in one of the following forms:

    • 1997-B01 (the full form)
    • J97B01 (the packed version of the full form)
    • B01 (the abbreviated form)